Wind_Speed
26 27 27 28 27 27 27 26 25 25 25 25 25 25 26 26 26 25 25 24 24 24 24 24 23 23 23 22 22 22 21 21 20 20 20 20 21 22 22 23 22 23 24 25 26 27 27 27 27 26 25 23 22 22 21 20 18 17 16 16 16 16 17 19 20 20 18 17 16
26 27 27 28 28 27 27 26 26 25 25 25 25 25 25 26 26 26 25 24 24 24 24 24 24 24 24 24 23 23 23 23 22 21 21 20 21 22 23 23 23 22 23 24 25 27 27 28 28 28 27 26 25 24 23 21 19 16 15 15 15 16 17 19 19 19 18 17 16
26 26 27 28 28 28 27 27 26 26 25 25 25 25 25 26 26 26 26 25 24 24 24 24 24 24 24 24 25 25 25 25 24 24 23 22 22 22 23 23 23 23 22 23 24 26 27 28 28 28 27 27 26 25 24 21 18 15 13 13 13 14 15 15 15 15 15 15 15
26 26 27 27 28 28 28 27 27 26 26 26 25 25 25 25 26 26 26 25 25 24 24 24 24 25 25 25 25 26 26 26 26 26 26 25 24 23 23 23 24 23 23 23 23 25 26 27 27 27 27 26 26 25 24 22 18 14 11 11 11 12 12 12 12 12 12 13 14
26 26 27 27 27 28 28 28 28 28 27 27 26 26 25 25 25 26 26 26 25 25 25 25 25 25 25 25 26 26 27 27 28 28 28 28 26 25 23 23 24 24 24 23 23 24 25 26 27 26 26 25 25 25 24 22 18 14 11 10 10 11 12 12 11 11 11 11 12
26 26 26 27 27 28 29 29 29 29 28 28 27 27 26 25 25 25 26 26 26 26 25 25 25 25 25 25 26 26 27 27 28 29 30 30 29 27 25 24 23 24 24 24 23 23 24 25 26 25 25 24 25 25 25 23 19 15 12 10 11 11 12 12 11 10 10 10 11
25 26 26 27 27 28 29 29 30 30 30 29 29 28 27 26 25 25 26 26 26 26 26 26 25 25 25 25 26 26 27 28 29 29 30 30 30 28 26 24 23 23 24 24 24 23 24 24 25 25 24 24 24 24 25 24 21 16 13 11 11 12 13 12 11 10 10 10 10
25 26 26 26 27 28 28 29 30 30 30 30 30 29 28 27 26 26 26 26 26 26 26 26 26 25 25 26 26 26 27 28 29 30 30 30 30 29 27 25 24 23 23 24 24 24 24 24 24 24 24 24 24 24 25 24 22 18 14 11 11 12 13 13 11 10 9 9 9
26 25 26 26 27 27 28 29 30 30 30 30 30 29 28 27 27 26 26 26 26 26 26 26 26 25 25 25 26 26 27 28 29 30 30 30 30 29 28 27 25 23 23 23 24 24 24 24 25 25 25 24 24 24 25 25 23 19 15 12 11 11 12 13 12 10 10 9 9
27 26 26 26 26 27 27 28 29 30 30 30 30 30 29 28 27 26 26 26 26 26 26 26 26 25 25 25 25 26 26 27 28 29 30 30 30 29 29 27 26 24 23 23 23 24 24 24 25 25 25 24 24 24 24 25 24 21 16 12 11 11 12 12 11 11 10 10 10
27 26 26 26 26 27 27 28 29 29 30 30 30 30 29 28 27 27 26 26 26 26 26 25 25 25 25 25 25 25 26 27 28 28 29 29 29 29 29 28 26 24 23 22 23 23 23 24 24 24 24 24 23 23 24 25 25 22 18 13 11 11 12 12 11 11 11 11 11
28 27 26 26 26 27 27 27 28 29 30 30 30 30 29 28 27 27 26 26 26 26 25 25 25 25 25 25 25 25 25 26 27 28 28 29 29 29 29 28 27 25 23 22 22 22 22 23 24 24 24 24 23 22 23 24 25 23 19 14 11 11 11 11 11 11 11 11 11
29 28 27 26 26 26 27 27 28 29 29 30 30 30 29 28 28 27 26 26 25 25 25 25 25 25 25 24 24 24 25 26 26 27 28 29 29 29 29 29 27 25 23 22 21 21 22 22 23 24 24 23 23 22 22 22 23 23 20 15 12 11 11 11 11 11 11 11 11
30 28 27 26 26 26 27 27 28 28 29 29 29 29 29 28 27 27 26 26 25 25 25 25 25 24 24 24 24 24 24 25 26 27 28 28 29 29 29 29 27 25 23 22 21 21 21 21 22 23 23 23 23 22 21 21 22 22 20 15 12 10 10 11 11 11 11 10 10
29 28 27 26 26 26 26 27 27 28 29 29 29 29 29 28 27 27 26 26 25 25 25 25 24 24 24 23 23 23 24 25 26 27 28 28 29 29 29 29 27 26 24 22 22 21 21 21 21 22 23 23 23 22 21 21 21 21 20 16 13 11 10 11 12 12 12 11 10
29 28 27 26 26 26 26 27 27 28 28 29 29 29 28 28 27 26 26 25 25 25 24 24 24 24 23 23 22 23 23 24 26 27 28 28 28 28 29 28 27 26 24 23 22 21 21 20 20 21 22 23 23 23 21 21 21 21 20 18 15 12 11 12 13 13 13 12 11
29 28 27 26 26 26 26 27 27 27 28 28 29 29 29 28 27 26 26 25 25 24 24 24 23 23 22 22 22 22 23 24 25 26 27 27 28 28 28 28 27 26 24 23 23 22 21 21 21 21 22 23 23 22 21 21 21 21 21 20 18 15 14 13 14 15 15 13 11
29 28 27 27 26 26 26 27 27 27 27 28 28 29 29 28 27 27 26 25 24 24 24 23 23 22 22 21 21 22 22 24 25 26 26 26 27 27 27 27 27 25 24 23 23 23 22 20 21 21 22 22 22 22 21 21 21 21 21 21 20 18 16 15 16 17 17 15 11
29 28 27 27 26 27 27 27 27 27 27 28 28 28 28 28 28 27 26 25 24 23 23 23 22 22 21 21 21 21 22 23 24 25 26 26 26 26 26 26 26 25 23 22 22 21 20 20 20 21 21 22 22 22 22 22 21 21 21 21 21 19 17 17 17 18 18 16 12
29 27 27 27 27 27 27 27 27 27 27 27 28 28 28 28 28 27 26 25 24 23 23 23 22 21 21 21 21 21 22 23 24 25 26 26 26 26 26 26 26 25 23 21 20 20 18 18 19 20 21 21 22 22 22 22 22 22 21 21 21 19 18 17 18 19 18 16 13
29 28 27 27 27 27 27 27 27 27 27 27 27 27 27 27 27 27 26 24 24 23 23 23 22 22 21 21 21 21 22 23 24 25 26 26 27 26 26 26 26 25 23 20 19 19 17 17 18 19 21 22 22 22 22 23 23 22 22 21 20 19 18 18 18 18 17 14 12
29 28 27 27 27 27 27 27 27 27 27 27 27 27 27 27 27 26 25 24 23 23 23 22 22 22 22 21 22 22 23 23 24 25 26 26 26 26 25 25 26 26 23 20 19 18 17 16 17 19 20 21 22 22 23 23 23 23 22 20 19 18 18 18 18 17 15 12 11
30 29 28 27 27 27 27 27 27 27 27 27 27 26 27 26 26 25 25 24 23 23 23 23 22 22 22 22 22 23 23 24 25 25 26 26 25 25 24 24 25 25 23 21 20 19 16 15 16 18 19 21 22 22 23 24 24 24 23 21 19 19 18 18 17 15 14 12 11
31 30 28 27 27 27 27 27 27 27 27 27 26 26 26 26 26 25 24 24 23 23 23 22 22 22 22 22 22 23 23 24 25 25 25 25 24 23 23 24 25 25 23 21 20 19 16 14 14 16 18 19 21 22 23 24 24 24 23 21 20 19 19 18 17 15 14 13 11
32 30 29 27 27 27 27 27 28 27 27 26 26 26 26 26 26 25 24 23 23 22 22 22 22 22 22 22 22 23 23 24 25 25 25 24 24 23 23 23 24 24 23 21 20 18 15 13 13 14 16 18 20 22 23 24 25 24 23 21 20 20 19 18 17 16 15 14 12
32 31 30 28 27 27 27 27 28 27 27 26 26 25 25 25 25 25 24 23 23 22 21 21 21 21 21 22 22 23 23 24 25 25 25 25 24 24 24 24 23 22 21 20 20 17 14 13 12 14 15 18 20 21 23 23 24 24 22 20 19 19 20 19 18 18 17 15 13
33 32 30 28 27 27 27 27 28 28 27 26 26 25 25 25 25 25 24 23 22 21 21 20 20 20 21 21 22 23 24 24 24 24 24 25 25 25 25 24 22 21 19 19 18 16 13 12 12 14 16 18 20 20 21 22 22 22 21 19 19 20 20 20 19 18 17 16 15
33 32 30 29 28 27 27 27 27 27 27 26 26 25 25 25 25 24 24 23 22 21 20 20 20 20 21 21 22 23 24 24 24 24 24 25 26 26 25 23 20 18 18 18 17 14 12 12 13 15 17 18 19 20 20 20 21 21 21 20 20 21 21 21 20 20 19 17 16
32 32 31 29 28 27 27 27 27 27 27 26 26 25 25 24 24 24 24 23 22 21 20 20 20 20 20 21 22 23 23 24 23 24 24 25 25 25 23 19 17 16 17 17 15 13 12 13 14 16 18 19 20 20 21 21 22 22 22 22 22 22 22 22 22 21 20 19 17
32 31 31 30 29 28 27 27 27 27 27 26 26 25 25 24 24 24 24 23 22 21 21 20 20 20 20 21 21 22 23 23 23 23 24 24 24 22 19 16 14 15 16 16 13 12 12 14 16 18 19 21 22 22 23 24 24 24 24 24 23 23 23 23 23 22 21 20 19
31 31 30 30 29 28 27 26 26 26 26 26 26 25 24 24 24 24 24 23 22 21 21 20 20 20 20 20 21 22 22 22 22 22 23 23 21 18 15 12 12 15 16 14 13 12 13 14 16 18 20 21 22 23 23 23 23 23 23 23 23 23 23 23 23 22 21 20 19
30 30 30 30 29 28 27 26 26 26 26 26 26 25 24 24 24 24 23 23 22 21 21 20 20 20 19 20 20 21 21 21 21 21 20 19 17 14 11 10 12 14 15 13 12 11 12 14 15 17 18 19 19 20 20 20 21 21 22 22 22 22 23 23 23 21 19 18 18
30 30 30 29 29 28 27 26 26 26 26 26 26 25 24 24 23 23 23 22 22 21 20 20 19 19 19 19 19 20 19 19 18 18 17 16 13 11 9 9 11 12 12 11 10 11 12 13 14 14 15 16 16 16 17 18 19 20 21 22 22 22 22 22 22 20 18 17 17
30 30 29 29 28 28 27 27 27 26 26 26 26 25 24 23 23 23 22 22 21 21 20 19 19 18 18 18 18 18 17 16 15 14 13 12 10 8 7 7 8 8 8 9 10 11 12 12 13 13 13 14 14 15 16 17 18 19 20 21 21 21 22 22 21 19 18 17 17
29 29 29 29 28 27 27 27 27 27 27 26 25 24 24 23 23 22 21 21 20 20 19 19 18 17 17 17 16 16 14 13 12 11 10 9 6 5 6 6 6 7 8 9 10 10 11 11 12 12 13 14 15 16 17 18 19 19 20 20 20 20 20 20 20 18 17 17 16
29 29 29 28 28 27 27 27 27 27 27 26 25 24 23 22 22 21 20 20 19 19 19 18 17 16 16 15 14 12 10 10 10 9 6 4 5 6 8 9 9 8 8 8 9 10 10 11 11 12 13 15 16 17 18 18 19 19 19 19 19 19 18 18 18 17 16 15 15
28 28 28 28 28 28 27 27 27 27 26 26 24 23 22 22 21 20 19 19 19 19 18 17 17 16 15 13 11 9 7 7 7 6 6 7 8 9 9 9 9 8 8 8 8 9 9 10 11 12 14 16 18 18 19 19 18 18 18 18 18 17 16 16 16 15 15 14 14
28 28 28 28 28 28 28 27 27 27 26 25 24 23 22 21 20 20 19 19 19 18 18 17 16 15 14 13 10 8 6 5 4 5 7 9 9 9 8 8 7 7 7 8 8 8 8 9 11 12 15 17 19 19 19 19 18 17 17 17 17 16 16 15 15 14 14 13 12
27 27 28 28 28 28 28 28 27 27 26 24 23 22 21 20 20 19 18 18 18 18 17 16 16 15 14 13 11 10 8 6 5 5 6 7 7 6 5 5 5 6 7 8 7 7 7 9 11 14 16 18 19 20 19 19 18 17 16 17 17 17 16 15 14 14 14 13 12
27 27 27 27 28 28 29 28 28 27 26 24 22 21 20 20 19 18 18 18 18 18 17 16 16 15 14 13 13 12 11 9 8 7 6 6 5 4 4 4 5 7 8 8 7 5 7 9 12 14 17 19 19 19 19 18 17 17 16 17 17 17 17 15 15 14 14 13 12
27 27 27 27 27 28 28 28 28 27 26 24 22 21 20 19 19 18 18 18 18 18 17 17 16 16 15 14 14 13 13 12 11 10 9 8 7 6 5 5 6 7 8 7 6 5 7 10 13 15 17 19 20 20 19 18 16 16 16 16 16 16 16 15 15 15 14 13 12
Wind_Direction
315 311 308 306 304 303 303 303 303 304 306 307 309 310 310 310 309 307 305 302 299 296 295 295 297 299 301 303 304 306 306 305 304 302 297 291 286 282 279 277 274 271 268 266 265 266 268 271 272 272 272 274 279 284 285 283 283 285 288 289 285 282 279 279 284 287 289 293 293
317 313 310 307 305 303 302 302 302 303 304 306 308 308 309 308 307 305 303 300 297 295 293 294 295 297 299 301 303 304 305 306 306 305 302 297 291 286 281 278 275 271 268 265 264 265 267 270 272 272 271 271 274 279 283 284 283 284 288 290 288 284 280 278 280 282 284 289 294
319 315 312 309 306 304 302 301 301 302 303 304 306 307 307 307 306 304 302 299 296 293 292 292 293 295 298 300 301 303 304 305 306 306 305 302 297 291 285 280 276 272 268 264 263 263 265 268 270 271 271 271 272 275 279 282 280 280 283 288 288 286 282 279 281 284 285 285 290
319 316 313 310 307 305 302 301 301 301 302 303 304 305 305 305 304 303 300 297 294 292 290 290 292 294 296 299 301 302 303 305 306 307 307 306 302 297 291 284 278 273 269 264 261 261 263 265 268 269 269 270 271 274 277 279 277 274 275 280 283 282 282 283 287 290 290 289 290
320 317 314 311 308 305 303 301 301 301 301 302 303 304 304 304 303 301 299 296 293 291 289 289 290 292 295 298 300 302 303 305 306 308 308 307 305 301 295 287 281 275 270 265 260 259 260 262 265 266 267 268 269 272 275 277 274 269 266 270 274 276 279 283 290 296 300 301 298
319 317 315 312 309 306 304 302 301 301 301 301 302 303 303 303 302 300 298 295 292 290 288 287 289 291 294 297 300 302 303 305 307 308 309 308 307 304 299 291 283 276 271 266 261 257 257 259 261 262 264 266 268 271 274 275 272 265 259 261 266 271 276 280 288 298 306 308 306
317 316 314 312 309 306 304 302 301 300 300 300 301 302 302 302 301 299 297 294 291 289 287 286 287 290 293 296 299 301 304 306 307 309 309 309 308 306 302 295 286 278 271 266 261 257 254 254 256 257 259 262 265 268 272 274 270 264 256 256 263 270 275 279 286 296 306 311 311
316 315 313 311 308 306 304 302 301 300 299 299 300 301 301 301 300 298 296 293 290 288 286 286 286 289 292 295 298 301 304 307 308 309 309 309 308 307 304 298 290 280 271 265 261 256 253 251 252 253 255 258 261 265 268 271 269 263 256 254 261 270 275 279 284 291 298 304 306
315 314 312 310 308 306 304 302 300 299 299 298 299 299 300 300 299 298 295 292 290 287 286 285 286 288 291 294 298 301 304 307 309 309 309 309 308 308 306 302 294 283 272 265 259 255 251 249 248 250 252 255 257 261 264 267 267 263 256 252 258 267 274 278 281 285 289 293 295
315 313 311 309 308 306 303 302 300 299 298 297 297 298 298 298 298 297 295 292 289 287 285 284 285 287 289 293 297 301 304 307 308 309 309 308 308 308 307 305 299 288 276 265 258 253 249 247 246 246 248 251 253 257 260 263 265 263 257 249 252 261 269 274 277 279 281 284 286
315 313 311 309 308 306 303 302 300 299 298 297 297 297 297 297 297 296 294 292 289 286 284 284 284 286 289 292 296 300 304 306 308 308 308 308 307 308 308 307 303 294 280 267 258 252 248 245 243 242 243 245 249 251 255 258 262 262 258 248 246 253 263 270 273 275 275 277 278
315 313 311 309 307 306 303 302 300 299 298 297 297 297 297 297 297 296 294 292 289 286 284 284 284 285 288 291 296 300 303 305 307 307 307 307 306 307 307 307 305 297 285 269 259 251 247 244 242 240 239 240 243 245 249 253 257 259 257 248 244 249 259 267 271 272 270 269 270
315 314 312 310 308 305 303 301 300 299 299 298 298 297 297 297 297 296 294 292 289 286 284 284 284 285 287 291 295 299 302 304 306 306 306 305 305 305 306 306 305 299 287 272 259 251 246 242 240 238 236 236 237 239 242 246 251 254 254 248 243 247 258 266 269 268 264 260 260
314 314 312 310 307 305 303 301 300 300 299 299 298 298 298 297 297 296 294 291 289 286 284 283 283 284 287 290 294 298 301 303 304 304 304 303 303 303 303 304 303 298 288 273 260 250 245 242 239 237 235 234 234 234 236 239 245 249 250 246 242 246 257 264 267 264 257 249 246
313 313 312 310 307 305 303 301 301 300 300 300 299 299 298 297 297 295 293 291 288 286 284 283 283 285 287 290 293 296 299 301 302 302 302 301 301 301 301 301 301 297 288 274 261 251 245 241 239 237 236 234 233 232 232 233 238 243 246 245 242 243 251 258 261 259 251 239 232
311 312 312 310 308 305 303 302 301 301 300 301 300 299 298 298 297 295 293 290 287 285 283 283 283 284 286 289 292 295 297 299 300 300 300 300 300 299 299 299 298 295 286 273 262 253 246 241 239 237 236 234 232 230 229 228 231 236 240 243 243 242 243 247 251 251 245 234 225
310 311 311 310 307 305 303 302 301 301 301 301 301 300 299 298 297 295 292 289 286 284 283 282 282 284 286 288 291 294 296 297 299 299 300 300 299 298 298 297 296 293 285 273 261 253 247 241 238 237 236 235 233 230 227 225 225 229 234 239 241 241 240 241 243 244 241 232 222
308 309 310 309 307 305 303 302 301 300 300 300 300 300 299 298 297 294 292 288 285 283 282 281 281 282 285 288 291 293 295 297 299 300 300 300 299 299 298 297 296 293 285 272 260 252 247 243 238 236 235 235 233 230 227 224 222 224 228 234 237 238 238 238 241 242 239 231 222
306 307 308 308 306 305 303 302 301 300 300 299 300 299 299 299 297 294 291 288 285 282 280 280 280 281 283 287 290 292 294 296 298 299 300 300 300 300 299 299 298 295 286 271 258 250 246 244 239 235 235 235 233 231 227 223 220 220 223 227 231 233 234 237 240 241 239 232 225
305 305 306 306 305 304 303 302 301 300 299 299 299 299 299 298 297 295 291 287 284 281 279 278 278 279 282 284 287 290 292 295 297 298 300 300 300 300 300 300 300 297 287 270 254 246 245 243 239 236 235 235 234 232 228 224 220 218 218 220 223 226 231 236 241 241 237 230 224
304 303 303 304 304 303 303 302 301 300 299 298 298 298 298 298 297 295 291 287 283 279 277 276 276 278 280 283 286 289 292 294 295 297 298 299 299 299 298 299 299 296 287 268 249 241 241 243 240 236 234 234 234 233 230 226 221 217 214 213 214 219 227 235 241 240 234 225 219
303 302 301 302 302 302 302 301 300 299 299 298 298 297 297 297 296 294 291 287 282 278 276 275 275 276 279 282 286 289 292 294 295 296 297 297 297 296 296 295 296 294 285 266 245 235 236 239 237 235 234 234 235 234 232 228 222 217 212 209 209 213 222 231 237 236 227 217 211
303 301 300 300 301 301 301 300 299 299 298 298 298 297 297 296 295 293 290 286 282 278 275 274 274 276 279 283 287 291 293 295 296 297 297 297 296 295 294 293 293 291 282 263 241 232 233 237 236 235 234 235 236 236 234 229 223 217 212 208 206 208 216 225 231 228 218 208 204
303 301 299 299 299 300 300 300 299 298 298 298 297 297 296 296 295 292 289 286 282 278 276 274 274 277 281 285 289 293 295 297 298 299 298 297 296 295 294 293 292 290 280 260 237 228 232 239 239 237 236 236 236 236 234 229 223 217 213 209 205 205 210 217 222 219 211 204 201
303 301 299 297 298 299 299 299 299 298 298 297 297 296 296 296 294 292 289 286 282 279 276 275 276 279 283 288 291 295 297 298 299 299 298 298 297 296 295 293 292 288 277 255 232 226 232 241 243 241 239 237 236 234 231 226 220 216 214 210 205 203 206 211 214 212 206 202 200
303 301 299 297 296 297 298 298 298 298 297 296 296 296 296 296 295 293 290 286 282 279 277 276 277 281 285 289 292 295 297 298 298 298 298 297 297 297 295 293 291 284 270 247 228 226 234 244 247 245 241 237 233 229 225 219 215 213 213 210 205 203 204 206 208 206 203 201 200
302 301 298 296 295 295 296 297 297 297 296 296 295 295 295 296 295 294 291 288 284 280 277 276 278 281 285 288 292 294 296 297 297 297 297 296 296 296 295 292 288 279 261 237 226 228 239 247 249 246 240 235 229 223 217 211 209 209 211 210 207 204 204 204 203 203 202 200 199
302 300 298 296 294 293 294 295 296 296 296 295 295 294 295 295 296 295 292 289 285 280 277 276 278 281 284 287 291 294 296 297 297 297 296 295 294 294 292 289 283 270 249 230 228 235 246 249 246 241 236 231 225 218 211 206 205 207 210 211 209 206 204 203 203 203 203 201 199
301 300 298 295 293 292 292 294 295 295 295 294 294 293 294 295 296 295 294 290 285 280 277 276 277 280 283 287 291 294 296 297 297 297 295 294 292 291 290 285 277 258 238 228 235 246 252 248 241 235 230 225 220 215 210 207 207 209 211 212 210 208 205 204 205 206 206 203 200
301 299 297 294 292 290 290 292 293 294 294 293 292 292 293 294 295 295 294 290 285 280 277 276 276 279 282 286 290 293 295 297 297 297 295 293 292 290 287 281 267 245 233 233 245 255 253 243 235 229 223 219 215 211 209 208 209 210 211 212 211 209 207 206 208 209 208 203 199
300 299 296 294 291 289 289 290 291 292 292 292 292 291 292 293 295 295 293 289 284 279 276 274 275 277 281 286 290 293 295 297 297 296 295 293 292 289 283 273 254 239 236 244 253 255 247 236 229 223 218 213 209 207 206 207 209 210 211 212 211 209 207 207 209 209 207 202 197
300 298 296 293 290 288 287 288 289 290 291 291 290 290 290 292 293 293 291 288 283 278 274 272 273 277 281 285 289 292 294 295 295 295 294 293 291 288 280 266 250 245 247 253 252 245 235 228 224 220 215 209 204 203 203 206 209 210 210 210 208 206 205 205 205 205 203 198 195
300 298 295 292 289 287 286 286 287 289 290 290 289 289 289 290 291 291 289 286 280 275 271 270 272 276 280 284 287 290 292 292 293 294 294 293 290 286 277 266 259 257 255 250 237 228 224 225 224 220 212 204 198 197 200 203 205 206 206 204 202 200 199 200 200 200 198 195 192
300 297 295 291 289 286 285 285 286 288 289 289 288 287 287 288 290 290 287 283 277 273 270 269 271 274 278 282 286 288 290 291 292 293 295 295 292 282 268 258 257 253 242 227 219 219 224 228 227 219 207 195 189 190 194 197 199 199 198 197 195 195 195 197 197 197 196 194 194
300 297 294 291 288 285 283 283 285 286 288 288 288 287 286 287 288 288 285 280 274 270 268 267 269 272 276 280 284 287 289 292 294 294 295 295 283 256 229 218 216 213 211 211 216 224 232 235 228 214 197 184 181 183 186 189 190 191 190 189 190 190 192 193 194 194 194 194 194
301 298 295 291 288 284 282 282 283 285 287 287 287 286 286 286 286 285 282 277 272 267 265 265 266 269 272 275 277 282 289 295 294 288 277 252 217 205 204 205 206 207 210 218 229 238 240 234 222 204 187 176 175 177 180 181 181 182 182 182 183 185 186 188 189 190 191 193 196
302 299 296 292 288 284 282 280 281 283 285 286 286 285 285 285 285 283 279 274 268 264 263 262 262 264 265 265 265 270 282 290 284 259 218 196 194 199 204 208 212 218 227 238 248 250 241 225 209 192 179 173 172 173 174 175 175 175 175 175 176 177 179 182 184 186 189 192 198
302 300 297 293 289 285 282 280 280 282 284 285 285 284 284 284 284 280 275 270 265 262 260 259 258 257 256 254 252 250 254 261 252 217 192 187 191 196 204 211 223 237 250 260 263 255 235 211 194 181 173 171 170 170 171 172 173 173 174 172 171 171 174 177 181 183 184 189 196
302 301 298 295 291 287 284 281 281 281 282 283 283 283 283 283 282 278 272 267 263 261 259 256 253 250 247 246 242 237 230 225 221 209 197 191 192 197 207 226 249 264 271 274 269 251 221 197 183 174 170 169 168 168 168 170 172 173 173 171 169 168 169 172 176 177 178 181 188
301 300 298 295 292 289 286 283 282 281 281 281 281 281 282 282 280 275 269 264 261 259 256 253 248 244 241 240 237 232 227 222 221 222 222 218 215 217 233 259 279 285 285 282 272 243 204 184 174 169 167 166 165 164 164 165 166 167 167 167 165 164 165 168 172 173 172 173 178
299 299 298 295 293 290 287 284 282 281 280 279 279 280 280 280 277 271 265 260 258 256 254 250 245 240 237 236 234 231 228 226 226 229 233 236 239 243 254 270 285 291 291 286 273 231 190 173 167 165 164 164 161 159 158 159 159 159 159 159 160 161 163 166 169 170 169 169 173
Height
1455 1454 1453 1451 1450 1448 1447 1445 1444 1443 1441 1440 1439 1438 1436 1435 1434 1433 1432 1431 1430 1429 1428 1427 1426 1425 1425 1424 1423 1422 1421 1420 1420 1419 1418 1418 1417 1416 1415 1415 1415 1415 1415 1415 1415 1415 1414 1414 1414 1413 1413 1413 1414 1414 1413 1412 1411 1410 1409 1408 1407 1407 1407 1408 1409 1409 1408 1406 1405
1454 1453 1451 1450 1448 1447 1445 1444 1443 1441 1440 1439 1437 1436 1435 1434 1433 1432 1431 1430 1429 1428 1427 1426 1425 1424 1423 1422 1421 1420 1420 1419 1418 1418 1417 1416 1415 1415 1414 1413 1413 1413 1413 1413 1413 1413 1413 1413 1412 1412 1412 1412 1412 1412 1412 1411 1410 1408 1408 1407 1406 1406 1407 1408 1408 1407 1406 1405 1404
1453 1451 1450 1449 1447 1446 1444 1443 1441 1440 1439 1437 1436 1435 1434 1433 1431 1430 1429 1428 1428 1427 1426 1425 1424 1423 1422 1421 1420 1419 1418 1417 1416 1416 1415 1414 1414 1413 1412 1411 1411 1411 1411 1410 1411 1411 1411 1411 1411 1411 1411 1411 1411 1411 1410 1410 1409 1408 1407 1406 1406 1406 1407 1408 1407 1406 1405 1404 1403
1452 1450 1449 1447 1446 1445 1443 1441 1440 1439 1437 1436 1435 1434 1432 1431 1430 1429 1428 1427 1426 1425 1425 1424 1423 1422 1420 1420 1419 1417 1416 1415 1415 1414 1413 1412 1412 1411 1410 1409 1409 1408 1408 1409 1409 1409 1409 1409 1409 1409 1409 1410 1410 1409 1409 1409 1408 1407 1406 1406 1406 1406 1407 1407 1406 1405 1404 1403 1402
1450 1449 1448 1446 1445 1443 1442 1440 1439 1437 1436 1435 1433 1432 1431 1430 1429 1427 1426 1425 1425 1424 1423 1422 1421 1420 1419 1418 1417 1416 1415 1414 1413 1412 1411 1410 1410 1409 1408 1407 1407 1406 1406 1406 1406 1407 1407 1407 1407 1407 1408 1408 1408 1408 1408 1408 1407 1407 1406 1405 1406 1406 1406 1406 1406 1405 1403 1402 1401
1449 1448 1446 1445 1444 1442 1440 1439 1437 1436 1435 1433 1432 1430 1430 1428 1427 1426 1425 1424 1423 1422 1421 1421 1420 1419 1418 1417 1416 1415 1413 1412 1411 1410 1409 1408 1407 1407 1406 1405 1405 1404 1404 1404 1404 1405 1405 1405 1405 1405 1406 1406 1406 1406 1406 1406 1406 1405 1405 1405 1405 1405 1405 1405 1404 1403 1401 1400 1400
1448 1446 1445 1443 1442 1440 1439 1438 1436 1435 1433 1431 1430 1429 1428 1427 1426 1425 1423 1422 1421 1420 1420 1419 1418 1418 1417 1415 1415 1413 1412 1411 1410 1409 1407 1406 1405 1405 1404 1403 1403 1402 1402 1401 1402 1402 1403 1403 1403 1404 1404 1404 1404 1405 1405 1405 1405 1404 1404 1403 1404 1404 1404 1403 1402 1401 1399 1398 1398
1446 1445 1444 1442 1440 1439 1438 1436 1435 1433 1432 1430 1429 1427 1426 1425 1424 1423 1422 1421 1420 1419 1418 1417 1417 1416 1415 1414 1413 1412 1410 1409 1408 1407 1406 1405 1403 1403 1402 1401 1401 1400 1400 1400 1399 1400 1400 1400 1401 1401 1402 1402 1402 1403 1403 1403 1403 1403 1402 1402 1402 1402 1402 1401 1400 1399 1398 1397 1398
1445 1444 1442 1440 1439 1437 1436 1435 1433 1432 1430 1429 1427 1426 1425 1423 1422 1421 1420 1419 1418 1417 1416 1416 1415 1415 1414 1413 1411 1410 1409 1408 1407 1405 1404 1403 1402 1400 1400 1399 1399 1398 1398 1397 1397 1397 1398 1398 1399 1399 1400 1400 1400 1400 1401 1402 1402 1401 1401 1400 1400 1400 1400 1399 1398 1397 1397 1397 1397
1443 1442 1440 1439 1437 1436 1435 1433 1431 1430 1429 1427 1426 1425 1423 1422 1421 1420 1418 1417 1416 1415 1415 1414 1414 1413 1412 1411 1410 1409 1408 1406 1405 1404 1402 1401 1400 1399 1398 1397 1396 1396 1395 1395 1395 1395 1395 1396 1396 1397 1398 1398 1398 1399 1399 1400 1400 1400 1399 1399 1399 1399 1399 1398 1397 1397 1396 1396 1396
1442 1440 1439 1437 1435 1434 1433 1431 1430 1428 1427 1426 1424 1423 1421 1420 1419 1418 1417 1415 1415 1414 1413 1412 1412 1411 1410 1409 1408 1407 1406 1405 1404 1402 1401 1400 1399 1397 1396 1395 1394 1394 1394 1393 1393 1393 1393 1394 1394 1395 1395 1396 1397 1397 1397 1398 1399 1399 1398 1397 1397 1397 1397 1397 1396 1396 1396 1396 1396
1440 1438 1437 1435 1434 1432 1431 1429 1428 1427 1425 1424 1423 1421 1420 1418 1417 1416 1415 1414 1413 1412 1411 1410 1410 1409 1409 1408 1407 1405 1405 1403 1402 1401 1400 1398 1397 1396 1395 1394 1393 1392 1391 1391 1391 1391 1391 1391 1392 1392 1393 1394 1395 1395 1396 1396 1397 1397 1397 1396 1396 1395 1396 1396 1395 1395 1395 1395 1395
1438 1437 1435 1434 1432 1430 1429 1427 1426 1425 1424 1422 1421 1420 1418 1416 1415 1414 1413 1412 1411 1410 1409 1409 1408 1408 1407 1406 1405 1404 1403 1402 1400 1400 1398 1397 1396 1395 1393 1392 1391 1390 1390 1390 1390 1390 1389 1389 1390 1390 1391 1392 1393 1394 1394 1395 1395 1396 1395 1395 1395 1394 1394 1395 1395 1395 1395 1395 1394
1437 1435 1433 1432 1430 1429 1427 1426 1425 1423 1422 1421 1419 1418 1416 1415 1414 1412 1411 1410 1409 1408 1408 1407 1406 1406 1405 1404 1403 1402 1401 1400 1399 1398 1397 1395 1394 1393 1392 1391 1390 1389 1388 1388 1388 1388 1388 1388 1388 1388 1389 1390 1391 1392 1393 1393 1394 1394 1394 1394 1393 1393 1393 1393 1394 1394 1394 1394 1394
1435 1433 1432 1430 1429 1427 1425 1424 1423 1421 1420 1419 1418 1416 1415 1413 1412 1411 1410 1409 1408 1407 1406 1405 1405 1404 1404 1403 1402 1401 1400 1399 1397 1396 1395 1394 1393 1392 1390 1389 1388 1387 1387 1386 1386 1386 1386 1386 1386 1387 1388 1388 1389 1390 1391 1391 1392 1392 1392 1392 1392 1392 1392 1393 1393 1393 1394 1394 1394
1433 1431 1430 1428 1427 1425 1424 1422 1421 1420 1419 1417 1416 1415 1413 1412 1410 1409 1408 1407 1406 1405 1404 1404 1403 1402 1402 1401 1400 1399 1398 1397 1396 1395 1394 1392 1391 1390 1389 1387 1386 1385 1385 1384 1384 1384 1384 1385 1385 1385 1386 1386 1387 1388 1389 1389 1390 1390 1390 1390 1391 1391 1391 1392 1392 1393 1393 1393 1393
1431 1430 1428 1427 1425 1424 1422 1421 1419 1418 1417 1416 1415 1413 1412 1410 1409 1408 1406 1405 1405 1404 1403 1402 1401 1401 1400 1400 1399 1398 1396 1395 1394 1393 1392 1391 1390 1388 1387 1385 1385 1384 1383 1382 1382 1382 1382 1383 1383 1384 1384 1385 1385 1386 1387 1387 1388 1388 1388 1389 1390 1390 1390 1391 1391 1392 1392 1393 1393
1430 1428 1426 1425 1423 1422 1420 1419 1418 1416 1415 1414 1413 1412 1410 1409 1407 1406 1405 1404 1403 1402 1401 1400 1400 1399 1399 1398 1397 1396 1395 1394 1393 1391 1390 1389 1388 1386 1385 1384 1383 1382 1381 1380 1380 1380 1380 1380 1381 1382 1382 1383 1383 1384 1385 1385 1386 1386 1386 1387 1388 1389 1389 1390 1390 1391 1391 1391 1391
1428 1426 1425 1423 1421 1420 1419 1417 1416 1415 1414 1412 1411 1410 1409 1407 1406 1405 1403 1402 1401 1400 1400 1399 1398 1398 1397 1396 1395 1395 1394 1392 1391 1390 1389 1387 1386 1385 1383 1382 1381 1380 1379 1378 1378 1378 1378 1379 1379 1380 1380 1380 1381 1382 1382 1383 1384 1384 1385 1385 1386 1387 1388 1389 1389 1390 1390 1390 1390
1425 1424 1423 1421 1420 1418 1417 1415 1414 1413 1412 1410 1409 1408 1407 1405 1404 1403 1402 1401 1400 1399 1398 1397 1397 1396 1395 1395 1394 1393 1392 1391 1390 1388 1387 1386 1385 1383 1382 1380 1379 1378 1377 1376 1376 1376 1377 1377 1377 1378 1378 1378 1379 1380 1380 1381 1382 1383 1383 1384 1385 1386 1386 1387 1388 1388 1389 1389 1389
1424 1422 1420 1419 1418 1416 1415 1414 1412 1411 1410 1409 1407 1406 1405 1404 1403 1401 1400 1399 1398 1397 1396 1396 1395 1395 1394 1393 1392 1391 1390 1389 1388 1386 1385 1384 1383 1381 1380 1379 1377 1376 1375 1375 1375 1375 1375 1375 1376 1376 1376 1377 1377 1378 1379 1380 1380 1381 1382 1383 1383 1384 1385 1386 1387 1387 1387 1387 1388
1421 1420 1419 1417 1415 1414 1413 1411 1410 1409 1408 1407 1405 1404 1403 1402 1401 1400 1399 1398 1397 1396 1395 1394 1394 1393 1392 1391 1390 1390 1389 1387 1386 1385 1384 1382 1381 1380 1379 1377 1376 1375 1374 1373 1373 1373 1374 1374 1374 1375 1375 1375 1375 1376 1377 1378 1379 1380 1381 1381 1382 1383 1384 1385 1385 1386 1386 1386 1386
1419 1418 1416 1415 1414 1412 1411 1410 1408 1407 1406 1405 1404 1402 1401 1400 1399 1398 1397 1396 1395 1394 1394 1393 1392 1391 1391 1390 1389 1388 1387 1385 1384 1383 1382 1381 1380 1378 1377 1376 1374 1373 1372 1371 1371 1372 1372 1372 1373 1373 1373 1374 1374 1375 1375 1376 1377 1379 1380 1380 1381 1382 1383 1384 1385 1385 1385 1385 1385
1417 1416 1414 1413 1411 1410 1409 1408 1406 1405 1404 1403 1402 1400 1400 1398 1397 1396 1395 1395 1394 1393 1392 1391 1390 1390 1389 1388 1387 1386 1385 1384 1382 1381 1380 1379 1378 1377 1375 1374 1373 1371 1370 1370 1370 1370 1370 1371 1371 1372 1372 1372 1373 1374 1374 1375 1376 1377 1378 1379 1380 1380 1382 1382 1383 1384 1385 1385 1385
1415 1414 1412 1411 1410 1408 1407 1405 1405 1403 1402 1401 1400 1399 1398 1397 1395 1395 1394 1393 1392 1391 1390 1390 1389 1388 1387 1387 1385 1385 1383 1382 1381 1379 1378 1377 1376 1375 1374 1373 1371 1370 1369 1368 1369 1369 1370 1370 1370 1370 1371 1371 1372 1372 1373 1374 1375 1376 1377 1378 1379 1380 1380 1381 1382 1383 1384 1384 1384
1413 1411 1410 1409 1408 1406 1405 1404 1402 1401 1400 1399 1398 1397 1396 1395 1394 1393 1392 1391 1390 1389 1389 1388 1387 1387 1386 1385 1384 1383 1382 1380 1379 1378 1376 1375 1374 1373 1372 1371 1370 1368 1367 1367 1368 1368 1369 1369 1369 1370 1370 1370 1371 1372 1372 1373 1374 1375 1376 1377 1377 1378 1379 1380 1381 1382 1383 1383 1383
1410 1409 1408 1407 1405 1404 1403 1402 1400 1399 1398 1397 1396 1395 1394 1393 1392 1391 1390 1389 1388 1388 1387 1386 1386 1385 1384 1384 1383 1381 1380 1379 1378 1376 1375 1374 1373 1371 1370 1369 1368 1367 1366 1366 1367 1367 1368 1368 1368 1369 1369 1370 1370 1370 1371 1372 1373 1374 1375 1375 1376 1377 1378 1379 1380 1381 1381 1382 1382
1408 1407 1405 1405 1403 1402 1401 1400 1398 1397 1396 1395 1394 1393 1392 1391 1390 1389 1388 1387 1387 1386 1385 1385 1384 1384 1383 1382 1381 1380 1379 1377 1376 1375 1374 1372 1371 1370 1369 1368 1367 1366 1366 1366 1366 1366 1367 1367 1367 1368 1368 1369 1369 1370 1370 1371 1372 1373 1374 1375 1375 1376 1378 1379 1380 1380 1381 1381 1381
1406 1405 1403 1402 1401 1400 1399 1397 1396 1395 1394 1393 1392 1391 1390 1389 1388 1387 1386 1386 1385 1384 1384 1383 1383 1382 1381 1381 1380 1379 1377 1376 1375 1374 1372 1371 1370 1368 1367 1366 1365 1365 1365 1365 1365 1366 1366 1366 1366 1367 1367 1368 1368 1369 1369 1370 1371 1372 1373 1374 1375 1376 1377 1378 1379 1379 1380 1380 1380
1404 1402 1401 1400 1399 1398 1396 1395 1394 1393 1392 1391 1390 1389 1388 1387 1386 1385 1385 1384 1383 1383 1382 1382 1381 1381 1380 1379 1379 1377 1376 1375 1374 1372 1371 1370 1368 1367 1365 1365 1364 1364 1365 1365 1365 1365 1365 1365 1366 1366 1367 1367 1368 1368 1369 1370 1370 1371 1372 1373 1374 1375 1376 1377 1377 1378 1379 1379 1380
1401 1400 1399 1397 1396 1395 1394 1393 1392 1391 1390 1389 1388 1387 1386 1385 1385 1384 1383 1382 1382 1381 1381 1380 1380 1379 1379 1378 1377 1376 1375 1374 1372 1371 1370 1368 1367 1365 1364 1364 1364 1364 1364 1364 1364 1364 1365 1365 1365 1365 1365 1366 1366 1367 1368 1369 1370 1370 1371 1372 1373 1374 1375 1375 1376 1377 1378 1378 1378
1399 1398 1396 1395 1394 1393 1392 1391 1390 1390 1388 1387 1386 1385 1385 1384 1383 1382 1381 1381 1380 1380 1379 1379 1379 1378 1378 1377 1376 1375 1374 1372 1371 1370 1369 1367 1365 1364 1364 1363 1363 1363 1363 1363 1363 1363 1364 1364 1364 1364 1365 1365 1365 1366 1367 1368 1368 1369 1370 1371 1372 1373 1374 1374 1375 1376 1376 1376 1377
1397 1395 1394 1393 1392 1391 1390 1389 1388 1387 1386 1385 1385 1384 1383 1382 1381 1380 1380 1379 1379 1378 1378 1377 1377 1377 1376 1376 1375 1374 1373 1371 1370 1369 1367 1366 1365 1364 1363 1363 1363 1363 1362 1362 1363 1363 1363 1363 1363 1363 1363 1364 1364 1365 1366 1367 1367 1368 1369 1370 1370 1371 1372 1373 1373 1374 1375 1375 1375
1395 1393 1392 1391 1390 1389 1388 1387 1386 1385 1385 1384 1383 1382 1381 1380 1380 1379 1378 1378 1377 1377 1376 1376 1376 1375 1375 1375 1374 1373 1372 1370 1369 1368 1367 1365 1364 1364 1363 1363 1363 1362 1362 1362 1362 1362 1362 1362 1362 1362 1362 1363 1363 1364 1365 1366 1366 1367 1368 1368 1369 1370 1370 1371 1372 1373 1374 1374 1375
1393 1391 1390 1389 1388 1387 1386 1385 1384 1384 1383 1382 1381 1380 1379 1379 1378 1377 1376 1376 1376 1375 1375 1375 1375 1375 1374 1374 1373 1372 1371 1370 1369 1367 1366 1365 1364 1364 1363 1363 1363 1362 1361 1361 1361 1361 1361 1361 1361 1361 1361 1362 1363 1363 1364 1365 1365 1366 1366 1367 1368 1369 1369 1370 1371 1372 1373 1374 1374
1391 1390 1388 1387 1386 1385 1384 1383 1382 1382 1381 1380 1379 1378 1378 1377 1376 1375 1375 1375 1374 1374 1374 1374 1374 1373 1373 1373 1372 1371 1370 1369 1368 1367 1366 1365 1364 1363 1362 1362 1362 1361 1361 1361 1361 1361 1360 1360 1360 1360 1361 1361 1362 1363 1364 1364 1365 1365 1365 1366 1367 1368 1368 1369 1370 1372 1372 1373 1374
1389 1388 1386 1385 1384 1383 1382 1381 1380 1380 1379 1378 1377 1377 1376 1375 1375 1374 1374 1373 1373 1372 1372 1372 1372 1372 1372 1372 1371 1370 1370 1369 1368 1367 1366 1365 1364 1363 1362 1362 1362 1361 1361 1361 1360 1360 1360 1360 1360 1360 1360 1361 1362 1362 1363 1364 1364 1365 1365 1365 1366 1367 1368 1369 1370 1371 1372 1373 1374
1387 1386 1385 1383 1382 1381 1380 1379 1379 1378 1377 1376 1376 1375 1374 1374 1373 1373 1372 1372 1371 1371 1371 1371 1371 1371 1371 1370 1370 1370 1369 1368 1368 1366 1365 1364 1364 1363 1363 1362 1362 1362 1361 1361 1360 1360 1360 1360 1360 1360 1360 1361 1361 1362 1363 1363 1364 1365 1365 1365 1366 1367 1369 1370 1370 1371 1372 1373 1374
1386 1385 1383 1381 1380 1379 1378 1377 1377 1376 1375 1375 1374 1373 1373 1372 1371 1371 1371 1370 1370 1370 1370 1370 1370 1370 1370 1370 1369 1369 1368 1368 1367 1366 1365 1365 1364 1363 1363 1363 1362 1362 1362 1361 1360 1360 1360 1360 1359 1360 1360 1361 1361 1362 1363 1363 1364 1365 1365 1366 1367 1368 1369 1370 1371 1372 1372 1373 1374
1384 1383 1381 1380 1378 1377 1376 1375 1375 1374 1374 1373 1372 1372 1371 1370 1370 1370 1370 1369 1369 1369 1369 1369 1369 1369 1369 1368 1368 1368 1367 1367 1366 1366 1365 1365 1364 1364 1363 1363 1363 1362 1362 1361 1361 1360 1360 1360 1360 1360 1360 1360 1361 1362 1363 1364 1364 1365 1365 1366 1367 1368 1369 1370 1371 1372 1373 1373 1374
1382 1381 1380 1378 1377 1376 1375 1374 1373 1372 1372 1371 1370 1370 1370 1369 1369 1368 1368 1368 1368 1368 1368 1368 1368 1368 1367 1367 1367 1367 1366 1366 1365 1365 1365 1364 1364 1364 1363 1363 1363 1362 1362 1361 1361 1361 1360 1360 1360 1360 1360 1360 1361 1362 1363 1364 1365 1365 1366 1367 1368 1368 1369 1370 1371 1372 1373 1374 1374